TimePDT,TemperatureF,Dew PointF,Humidity,Sea Level PressureIn,VisibilityMPH,Wind Direction,Wind SpeedMPH,Gust SpeedMPH,PrecipitationIn,Events,Conditions,WindDirDegrees,DateUTC
12:53 AM,75.9,57.0,52,29.80,10.0,WNW,16.1,21.9,N/A,,Scattered Clouds,290,2013-08-23 07:53:00
1:53 AM,75.9,57.9,54,29.82,10.0,WNW,15.0,23.0,N/A,,Mostly Cloudy,300,2013-08-23 08:53:00
2:53 AM,73.9,57.9,57,29.82,10.0,WNW,16.1,23.0,N/A,,Clear,300,2013-08-23 09:53:00
3:20 AM,71.6,59.0,64,29.82,10.0,NW,16.1,21.9,N/A,Thunderstorm,Partly Cloudy,320,2013-08-23 10:20:00
3:48 AM,71.6,59.0,64,29.83,10.0,West,5.8,-,N/A,,Overcast,280,2013-08-23 10:48:00
3:53 AM,72.0,59.0,64,29.83,10.0,WNW,10.4,16.1,N/A,,Overcast,290,2013-08-23 10:53:00
4:53 AM,68.0,61.0,78,29.83,10.0,WNW,13.8,23.0,0.02,,Mostly Cloudy,300,2013-08-23 11:53:00
5:53 AM,68.0,60.1,76,29.81,10.0,WNW,5.8,-,N/A,,Clear,300,2013-08-23 12:53:00
6:53 AM,68.0,59.0,73,29.82,10.0,West,8.1,-,N/A,,Clear,270,2013-08-23 13:53:00
7:53 AM,70.0,60.1,71,29.84,10.0,West,9.2,-,N/A,,Mostly Cloudy,280,2013-08-23 14:53:00
8:53 AM,72.0,60.1,66,29.85,10.0,West,13.8,-,N/A,,Clear,280,2013-08-23 15:53:00
9:53 AM,73.9,57.9,57,29.85,10.0,WNW,19.6,24.2,N/A,,Clear,290,2013-08-23 16:53:00
10:53 AM,78.1,55.9,46,29.85,10.0,NNW,17.3,20.7,N/A,,Clear,330,2013-08-23 17:53:00
11:53 AM,79.0,55.0,44,29.84,10.0,West,18.4,27.6,N/A,,Clear,280,2013-08-23 18:53:00
12:53 PM,81.0,53.1,38,29.83,10.0,WNW,15.0,24.2,N/A,,Clear,300,2013-08-23 19:53:00
1:53 PM,81.0,51.1,35,29.82,10.0,WNW,17.3,29.9,N/A,,Clear,300,2013-08-23 20:53:00
2:53 PM,80.1,51.1,36,29.82,10.0,NW,18.4,27.6,N/A,,Clear,310,2013-08-23 21:53:00
3:53 PM,80.1,48.9,34,29.81,10.0,NW,21.9,33.4,N/A,,Clear,310,2013-08-23 22:53:00
4:53 PM,78.1,46.0,32,29.79,10.0,WNW,18.4,25.3,N/A,,Clear,300,2013-08-23 23:53:00
5:53 PM,80.1,46.9,31,29.78,10.0,WNW,15.0,26.5,N/A,,Clear,300,2013-08-24 00:53:00
6:53 PM,75.9,48.9,38,29.78,10.0,WNW,18.4,27.6,N/A,,Clear,300,2013-08-24 01:53:00
7:53 PM,73.0,51.1,46,29.78,10.0,WNW,15.0,31.1,N/A,,Clear,300,2013-08-24 02:53:00
8:53 PM,71.1,52.0,51,29.81,10.0,WNW,24.2,29.9,N/A,,Clear,290,2013-08-24 03:53:00
9:53 PM,70.0,51.1,51,29.82,10.0,West,17.3,-,N/A,,Clear,280,2013-08-24 04:53:00
10:53 PM,71.1,51.1,49,29.82,10.0,WNW,19.6,26.5,N/A,,Clear,290,2013-08-24 05:53:00
11:53 PM,70.0,51.1,51,29.83,10.0,WNW,12.7,-,N/A,,Clear,290,2013-08-24 06:53:00